Vorticity
4 11 12 9 5 2 7 6 8 7 4 5 6 1 4 3 4 3 5 5 6 6 7 5 5 5 4 4 5 4 3 5 6 5 5 5 5 5 4 3 3 2 2
7 8 7 6 7 6 6 6 -2 2 7 6 3 5 5 3 4 5 5 4 4 5 6 7 7 5 5 5 5 5 6 4 3 4 5 6 7 6 5 4 6 4 3
5 9 8 8 9 5 5 5 4 5 8 4 5 6 5 4 5 3 4 5 7 9 9 8 7 7 5 4 4 5 6 6 5 4 4 4 6 6 7 7 5 6 4
7 7 5 5 6 6 7 5 6 6 4 3 4 4 4 4 4 5 9 8 5 6 5 1 4 7 8 11 9 7 6 7 6 8 10 8 6 8 6 8 7 7 5
6 7 6 7 2 5 8 5 6 5 4 5 5 3 1 2 4 7 5 4 4 5 3 3 4 7 6 6 5 5 7 8 6 6 6 10 12 11 9 9 35 3 6
8 7 7 7 6 6 7 6 5 5 5 6 3 0 3 -0 8 6 5 5 3 5 9 10 7 8 9 6 8 8 9 8 16 10 7 4 2 14 14 3 -21 19 5
8 8 8 8 7 8 7 4 4 6 7 3 4 1 4 3 2 4 5 5 3 6 8 4 5 4 6 7 8 8 5 5 1 -2 6 6 9 11 10 12 7 5 14
7 5 6 7 7 6 4 4 6 7 4 3 3 2 3 5 4 5 7 2 6 4 6 4 6 8 8 5 2 2 10 20 12 17 23 31 22 16 19 11 13 2 8
8 7 8 8 8 7 6 7 6 3 3 1 3 3 3 2 4 6 5 6 6 6 6 7 8 6 3 3 4 2 2 8 15 14 16 24 17 25 16 3 1 3 14
7 7 9 9 7 5 7 7 4 3 2 3 2 3 3 5 3 0 7 8 7 5 6 5 3 2 -1 -0 1 -1 -1 9 16 22 24 31 37 32 13 5 5 14 -12
4 7 6 6 5 5 5 4 4 3 3 2 2 2 4 4 6 7 7 5 3 8 6 5 4 3 5 12 12 13 16 22 27 33 35 30 29 39 53 56 1 23 23
4 5 3 4 5 5 5 5 6 4 3 3 3 5 5 5 6 6 5 7 10 6 3 4 6 12 15 14 15 16 24 32 32 27 15 16 15 13 31 53 53 40 28
3 3 3 6 7 6 4 8 5 3 4 2 3 6 6 5 7 5 8 11 8 2 2 1 11 12 12 14 20 22 27 25 17 14 13 9 7 18 8 35 36 27 50
3 3 4 4 6 6 8 7 4 4 3 3 6 4 6 6 4 7 10 8 2 -0 0 13 14 11 13 21 26 22 12 14 10 10 15 6 4 11 14 29 24 20 23
1 5 3 6 8 8 7 4 3 2 3 5 4 5 7 5 8 10 7 4 9 10 2 -0 8 17 21 22 26 13 10 10 10 9 12 13 4 6 19 2 35 17 22
2 5 6 7 8 8 5 4 2 3 5 3 6 7 7 6 9 6 5 5 12 12 19 13 19 21 27 24 17 12 9 8 11 10 13 14 7 4 19 5 18 24 32
7 6 4 10 8 7 4 2 3 6 3 6 8 6 9 9 5 3 4 10 11 14 8 14 22 23 24 16 14 9 7 7 11 11 13 11 4 8 15 8 15 26 38
4 5 9 8 7 4 3 3 5 3 6 6 4 9 11 6 3 7 8 11 12 9 5 3 37 26 19 16 12 11 9 8 10 11 9 4 9 14 22 9 10 18 45
6 6 7 7 5 4 4 4 4 8 5 6 7 11 7 4 4 9 11 10 7 8 16 16 22 22 15 15 13 25 24 19 12 12 7 9 13 16 23 10 6 12 48
7 8 6 5 5 6 4 5 9 3 7 6 12 6 3 5 7 8 9 12 7 9 19 29 19 14 13 21 26 15 10 9 14 24 32 36 29 16 17 11 2 15 32
6 5 6 7 7 7 4 8 2 6 5 12 3 6 6 5 12 11 13 7 10 20 25 21 14 14 24 17 8 8 16 29 19 37 44 28 33 21 19 11 7 17 20
6 8 7 7 8 4 7 1 4 6 11 9 6 4 6 12 7 7 8 9 20 19 25 12 13 21 15 8 10 23 16 13 33 25 22 28 25 21 21 5 12 20 23
7 9 6 9 7 6 1 3 5 12 8 3 6 6 8 10 5 9 5 18 28 23 13 10 19 13 8 9 24 20 20 19 22 20 24 24 24 17 5 15 29 13 28
11 7 9 7 6 4 4 5 11 9 5 5 7 8 7 10 4 3 8 25 34 15 9 14 16 9 10 31 23 16 6 22 23 19 17 32 16 10 10 21 10 25 24
10 8 8 2 5 3 3 11 11 3 4 5 7 11 13 2 7 6 14 35 28 12 7 17 9 9 28 18 18 6 3 -2 29 13 23 23 4 12 16 21 18 24 11
12 12 1 6 3 6 13 9 4 5 5 7 13 12 7 8 6 12 24 27 20 13 8 13 5 16 20 19 6 7 25 23 24 21 12 11 17 14 16 18 24 18 11
Height
5855 5854 5854 5856 5855 5854 5854 5854 5854 5854 5853 5853 5851 5850 5849 5847 5847 5845 5843 5841 5839 5836 5834 5830 5828 5827 5824 5822 5820 5818 5817 5815 5814 5813 5811 5809 5808 5807 5806 5805 5804 5802 5802
5850 5850 5850 5850 5850 5849 5850 5850 5850 5850 5849 5848 5847 5845 5843 5841 5838 5836 5834 5831 5829 5827 5825 5823 5821 5819 5816 5813 5811 5808 5805 5803 5801 5799 5798 5797 5796 5794 5794 5793 5793 5791 5790
5844 5845 5845 5845 5846 5846 5846 5845 5845 5844 5843 5842 5840 5838 5837 5834 5832 5830 5828 5824 5821 5818 5816 5812 5810 5808 5805 5800 5797 5796 5794 5791 5788 5786 5784 5783 5782 5781 5780 5778 5777 5779 5778
5840 5840 5841 5841 5841 5841 5840 5839 5838 5836 5835 5834 5833 5831 5829 5826 5824 5821 5819 5815 5812 5808 5805 5801 5798 5795 5792 5789 5786 5782 5779 5776 5773 5771 5769 5765 5764 5765 5763 5764 5762 5760 5762
5835 5835 5836 5835 5835 5834 5834 5833 5831 5830 5828 5827 5826 5824 5821 5819 5815 5812 5809 5806 5803 5799 5794 5790 5786 5783 5780 5777 5772 5767 5764 5763 5758 5754 5752 5751 5748 5748 5747 5749 5734 5740 5744
5830 5830 5830 5829 5828 5828 5827 5825 5824 5824 5822 5821 5818 5816 5813 5810 5806 5804 5800 5797 5793 5790 5785 5780 5774 5769 5765 5760 5757 5753 5748 5743 5742 5739 5736 5732 5729 5728 5728 5728 5726 5726 5727
5823 5824 5823 5823 5822 5821 5820 5818 5817 5816 5813 5813 5811 5809 5806 5801 5797 5792 5789 5784 5780 5775 5768 5761 5757 5752 5747 5742 5738 5733 5729 5725 5720 5714 5710 5707 5704 5701 5700 5702 5703 5703 5705
5817 5817 5816 5816 5814 5814 5813 5812 5811 5808 5806 5803 5802 5798 5796 5794 5788 5782 5777 5770 5763 5758 5752 5746 5740 5735 5730 5725 5719 5712 5705 5699 5692 5686 5679 5672 5667 5666 5665 5666 5668 5671 5677
5811 5810 5810 5809 5807 5808 5807 5805 5802 5799 5797 5794 5790 5787 5784 5779 5775 5770 5763 5756 5749 5743 5736 5730 5724 5719 5711 5703 5696 5687 5680 5670 5661 5652 5646 5640 5636 5635 5633 5630 5631 5637 5644
5804 5803 5802 5802 5800 5800 5798 5796 5794 5791 5788 5784 5781 5776 5770 5766 5759 5755 5750 5743 5736 5728 5720 5711 5703 5697 5689 5680 5671 5664 5653 5643 5632 5621 5612 5606 5601 5598 5598 5597 5600 5606 5614
5795 5795 5794 5794 5792 5792 5789 5786 5783 5779 5777 5773 5769 5765 5759 5752 5746 5740 5736 5730 5722 5711 5702 5692 5685 5676 5666 5656 5647 5637 5627 5614 5601 5589 5580 5574 5569 5567 5566 5567 5568 5574 5587
5787 5787 5786 5785 5784 5781 5779 5776 5774 5771 5768 5764 5759 5752 5745 5739 5731 5725 5720 5714 5708 5699 5688 5673 5662 5652 5641 5630 5620 5610 5597 5586 5576 5570 5562 5555 5549 5546 5542 5540 5540 5543 5554
5780 5780 5778 5776 5775 5773 5770 5767 5764 5760 5757 5752 5746 5739 5732 5724 5717 5710 5703 5698 5693 5684 5674 5653 5640 5627 5616 5605 5592 5581 5572 5565 5558 5552 5548 5542 5535 5530 5525 5520 5518 5520 5525
5772 5771 5768 5767 5765 5763 5760 5757 5753 5750 5745 5739 5732 5725 5719 5711 5702 5694 5685 5678 5675 5670 5662 5640 5625 5607 5593 5580 5567 5558 5553 5549 5543 5538 5532 5527 5523 5516 5510 5504 5503 5504 5507
5762 5760 5759 5757 5755 5752 5749 5746 5742 5737 5732 5726 5719 5712 5705 5697 5689 5678 5667 5656 5648 5649 5650 5630 5609 5595 5577 5563 5551 5541 5535 5532 5527 5522 5516 5512 5508 5503 5497 5492 5490 5490 5492
5751 5749 5749 5747 5745 5741 5738 5734 5729 5724 5719 5713 5707 5700 5693 5684 5674 5664 5654 5643 5630 5619 5618 5608 5594 5574 5559 5548 5538 5530 5522 5516 5512 5507 5501 5496 5493 5488 5484 5481 5477 5477 5479
5741 5740 5739 5737 5734 5729 5726 5722 5718 5713 5706 5701 5695 5688 5679 5670 5661 5651 5640 5629 5614 5598 5588 5597 5566 5553 5541 5530 5525 5517 5508 5501 5496 5492 5485 5480 5478 5474 5470 5468 5466 5464 5466
5729 5729 5728 5726 5722 5719 5714 5710 5705 5700 5694 5688 5681 5673 5665 5657 5647 5637 5625 5613 5599 5583 5567 5560 5555 5536 5524 5514 5505 5499 5493 5485 5479 5475 5469 5464 5461 5459 5456 5455 5455 5454 5455
5720 5719 5717 5714 5710 5706 5703 5698 5694 5688 5682 5675 5669 5661 5652 5642 5633 5622 5609 5597 5585 5571 5553 5535 5530 5519 5509 5497 5489 5482 5476 5471 5461 5455 5450 5445 5444 5444 5443 5443 5444 5445 5446
5709 5708 5705 5702 5699 5695 5692 5686 5682 5675 5669 5662 5655 5647 5638 5628 5619 5607 5595 5583 5571 5557 5541 5524 5513 5505 5491 5482 5472 5464 5463 5452 5444 5434 5427 5423 5424 5428 5430 5432 5434 5436 5437
5697 5696 5693 5691 5688 5685 5679 5675 5669 5663 5656 5650 5643 5634 5624 5615 5604 5592 5581 5569 5554 5539 5524 5512 5501 5490 5479 5470 5461 5453 5443 5435 5427 5413 5408 5407 5408 5414 5418 5422 5424 5426 5429
5685 5683 5682 5680 5676 5672 5667 5662 5656 5651 5645 5638 5630 5621 5611 5601 5591 5578 5565 5551 5535 5521 5511 5500 5489 5478 5469 5459 5450 5440 5430 5421 5415 5406 5399 5399 5399 5404 5409 5413 5415 5418 5422
5673 5672 5671 5668 5665 5660 5654 5650 5644 5639 5632 5625 5618 5608 5598 5589 5579 5569 5556 5539 5522 5507 5497 5489 5479 5468 5461 5450 5441 5433 5423 5413 5406 5400 5396 5396 5395 5399 5404 5406 5408 5411 5416
5661 5661 5659 5655 5653 5648 5643 5638 5632 5626 5620 5613 5605 5595 5586 5576 5567 5558 5545 5529 5512 5498 5489 5480 5470 5461 5450 5441 5432 5425 5418 5410 5403 5398 5394 5394 5394 5397 5399 5401 5402 5406 5411
5650 5649 5646 5643 5639 5635 5631 5625 5619 5613 5607 5599 5589 5580 5572 5564 5555 5546 5533 5518 5505 5493 5482 5471 5461 5453 5443 5434 5426 5420 5414 5406 5401 5397 5394 5393 5394 5395 5397 5397 5399 5402 5407
5637 5635 5633 5629 5627 5621 5617 5612 5608 5600 5593 5585 5576 5568 5559 5552 5541 5528 5518 5506 5498 5490 5479 5467 5457 5447 5437 5429 5422 5415 5408 5402 5397 5395 5393 5394 5393 5394 5395 5395 5397 5400 5405